When you browse on this site, cookies collect data to enhance your experience and personalize the content and advertising you see.
Visit our Privacy Policy to learn more. By continuing to use the site, you agree to this use of cookies and data.
  • In Austria
  • List of Countries
  • For 7 days
  • Water Temperature
  • Satellite Maps
  • Weather Map
  • News
  • Weather Widgets
  • user-avatar
    Login

    Hourly Weather Nayda

    Today, 21 July, Sunday

    Time Temperature Precipitation Wind Pressure Humidity
    00:00 +16°C° 0 mm 0 mps 752 mmHg 87%
    01:00 +16°C° 0 mm 0 mps 752 mmHg 89%
    02:00 +16°C° 0 mm 1 mps 752 mmHg 87%
    03:00 +15°C° 0 mm 0 mps 752 mmHg 88%
    04:00 +15°C° 0 mm 0 mps 752 mmHg 88%
    05:00 +15°C° 0 mm 0 mps 752 mmHg 88%
    06:00 +17°C° 0 mm 0 mps 752 mmHg 81%
    07:00 +22°C° 0 mm 1 mps 752 mmHg 75%
    08:00 +24°C° 0 mm 1 mps 753 mmHg 69%
    09:00 +25°C° 0 mm 1 mps 753 mmHg 62%
    10:00 +27°C° 0 mm 1 mps 753 mmHg 56%
    11:00 +28°C° 0 mm 1 mps 753 mmHg 50%
    12:00 +29°C° 0 mm 1 mps 752 mmHg 48%
    13:00 +29°C° 0 mm 1 mps 752 mmHg 46%
    14:00 +30°C° 0 mm 1 mps 752 mmHg 44%
    15:00 +29°C° 0 mm 1 mps 752 mmHg 45%
    16:00 +29°C° 0 mm 1 mps 752 mmHg 47%
    17:00 +29°C° 0 mm 1 mps 752 mmHg 48%
    18:00 +27°C° 0 mm 1 mps 751 mmHg 55%
    19:00 +25°C° 0 mm 1 mps 751 mmHg 62%
    20:00 +23°C° 0 mm 1 mps 751 mmHg 69%
    21:00 +22°C° 0.1 mm 1 mps 751 mmHg 72%
    22:00 +22°C° 0.1 mm 1 mps 751 mmHg 75%
    23:00 +20°C° 0.1 mm 2 mps 751 mmHg 78%

    Tomorrow, 22 July, Monday

    Time Temperature Precipitation Wind Pressure Humidity
    00:00 +21°C° 0.1 mm 1 mps 751 mmHg 81%
    01:00 +20°C° 0.1 mm 1 mps 751 mmHg 85%
    02:00 +20°C° 0.1 mm 1 mps 751 mmHg 88%
    03:00 +20°C° 0.3 mm 1 mps 750 mmHg 90%
    04:00 +20°C° 0.3 mm 1 mps 750 mmHg 92%
    05:00 +19°C° 0.3 mm 1 mps 750 mmHg 94%
    06:00 +19°C° 0.2 mm 2 mps 750 mmHg 94%
    07:00 +19°C° 0.2 mm 2 mps 750 mmHg 94%
    08:00 +19°C° 0.2 mm 2 mps 750 mmHg 94%
    09:00 +19°C° 1.2 mm 2 mps 750 mmHg 94%
    10:00 +19°C° 1.2 mm 2 mps 751 mmHg 94%
    11:00 +20°C° 1.2 mm 1 mps 751 mmHg 94%
    12:00 +20°C° 0.4 mm 2 mps 751 mmHg 86%
    13:00 +23°C° 0.4 mm 2 mps 751 mmHg 78%
    14:00 +25°C° 0.4 mm 2 mps 751 mmHg 70%
    15:00 +24°C° 0.7 mm 3 mps 750 mmHg 74%
    16:00 +24°C° 0.7 mm 3 mps 750 mmHg 79%
    17:00 +22°C° 0.7 mm 4 mps 750 mmHg 83%
    18:00 +21°C° 0.1 mm 3 mps 750 mmHg 86%
    19:00 +20°C° 0.1 mm 3 mps 750 mmHg 88%
    20:00 +19°C° 0.1 mm 2 mps 750 mmHg 90%
    21:00 +18°C° 0 mm 2 mps 751 mmHg 92%
    22:00 +17°C° 0 mm 3 mps 751 mmHg 94%
    23:00 +17°C° 0 mm 3 mps 751 mmHg 95%

    Day after tomorrow, 23 July, Tuesday

    Time Temperature Precipitation Wind Pressure Humidity
    00:00 +16°C° 0 mm 3 mps 751 mmHg 95%
    01:00 +16°C° 0 mm 3 mps 751 mmHg 94%
    02:00 +14°C° 0 mm 3 mps 751 mmHg 93%
    03:00 +14°C° 0 mm 3 mps 751 mmHg 94%
    04:00 +13°C° 0 mm 3 mps 751 mmHg 96%
    05:00 +12°C° 0 mm 3 mps 751 mmHg 97%
    06:00 +13°C° 0 mm 3 mps 751 mmHg 93%
    07:00 +14°C° 0 mm 3 mps 750 mmHg 90%
    08:00 +15°C° 0 mm 4 mps 750 mmHg 86%
    09:00 +17°C° 0 mm 4 mps 750 mmHg 84%
    10:00 +17°C° 0 mm 4 mps 751 mmHg 82%
    11:00 +18°C° 0 mm 4 mps 751 mmHg 80%
    12:00 +19°C° 0 mm 4 mps 750 mmHg 78%
    13:00 +20°C° 0 mm 3 mps 750 mmHg 75%
    14:00 +20°C° 0 mm 3 mps 750 mmHg 72%
    15:00 +20°C° 0 mm 3 mps 750 mmHg 73%
    16:00 +20°C° 0 mm 3 mps 750 mmHg 74%
    17:00 +20°C° 0 mm 3 mps 750 mmHg 74%
    18:00 +19°C° 0 mm 2 mps 750 mmHg 80%
    19:00 +18°C° 0 mm 2 mps 749 mmHg 87%
    20:00 +18°C° 0 mm 1 mps 749 mmHg 93%
    21:00 +18°C° 0 mm 1 mps 749 mmHg 95%
    22:00 +16°C° 0 mm 1 mps 750 mmHg 96%
    23:00 +16°C° 0 mm 1 mps 750 mmHg 97%

    24 July, Wednesday

    Time Temperature Precipitation Wind Pressure Humidity
    00:00 +15°C° 0 mm 2 mps 750 mmHg 97%
    01:00 +15°C° 0 mm 2 mps 750 mmHg 97%
    02:00 +15°C° 0 mm 2 mps 750 mmHg 97%
    03:00 +15°C° 0 mm 2 mps 750 mmHg 97%
    04:00 +15°C° 0 mm 2 mps 750 mmHg 97%
    05:00 +15°C° 0 mm 2 mps 750 mmHg 97%
    06:00 +17°C° 0 mm 2 mps 750 mmHg 91%
    07:00 +18°C° 0 mm 2 mps 750 mmHg 85%
    08:00 +20°C° 0 mm 3 mps 750 mmHg 79%
    09:00 +22°C° 0 mm 3 mps 750 mmHg 71%
    10:00 +24°C° 0 mm 3 mps 751 mmHg 64%
    11:00 +26°C° 0 mm 4 mps 751 mmHg 56%
    12:00 +27°C° 0 mm 4 mps 751 mmHg 54%
    13:00 +27°C° 0 mm 4 mps 750 mmHg 52%
    14:00 +28°C° 0 mm 4 mps 750 mmHg 50%
    15:00 +27°C° 0 mm 4 mps 750 mmHg 52%
    16:00 +27°C° 0 mm 4 mps 750 mmHg 54%
    17:00 +27°C° 0 mm 4 mps 750 mmHg 56%
    18:00 +25°C° 0 mm 3 mps 751 mmHg 64%
    19:00 +22°C° 0 mm 3 mps 751 mmHg 72%
    20:00 +20°C° 0 mm 2 mps 751 mmHg 81%
    21:00 +19°C° 0 mm 2 mps 751 mmHg 84%
    22:00 +18°C° 0 mm 2 mps 752 mmHg 87%
    23:00 +18°C° 0 mm 2 mps 752 mmHg 91%

    25 July, Thursday

    Time Temperature Precipitation Wind Pressure Humidity
    00:00 +17°C° 0 mm 2 mps 752 mmHg 91%
    01:00 +17°C° 0 mm 2 mps 752 mmHg 91%
    02:00 +16°C° 0 mm 2 mps 752 mmHg 91%
    03:00 +16°C° 0 mm 2 mps 753 mmHg 91%
    04:00 +16°C° 0 mm 2 mps 753 mmHg 91%
    05:00 +15°C° 0 mm 2 mps 753 mmHg 91%
    06:00 +17°C° 0 mm 2 mps 753 mmHg 84%
    07:00 +19°C° 0 mm 2 mps 753 mmHg 77%
    08:00 +21°C° 0 mm 2 mps 753 mmHg 69%
    09:00 +24°C° 0 mm 3 mps 754 mmHg 62%
    10:00 +26°C° 0 mm 3 mps 754 mmHg 55%
    11:00 +27°C° 0 mm 4 mps 754 mmHg 48%
    12:00 +28°C° 0 mm 4 mps 753 mmHg 47%
    13:00 +28°C° 0 mm 4 mps 753 mmHg 46%
    14:00 +28°C° 0 mm 4 mps 753 mmHg 45%
    15:00 +28°C° 0 mm 4 mps 753 mmHg 48%
    16:00 +28°C° 0 mm 4 mps 753 mmHg 50%
    17:00 +28°C° 0 mm 3 mps 752 mmHg 52%
    18:00 +26°C° 0 mm 3 mps 752 mmHg 60%
    19:00 +24°C° 0 mm 3 mps 753 mmHg 68%
    20:00 +21°C° 0 mm 2 mps 753 mmHg 76%
    21:00 +20°C° 0 mm 2 mps 753 mmHg 78%
    22:00 +19°C° 0 mm 2 mps 753 mmHg 80%
    23:00 +17°C° 0 mm 2 mps 753 mmHg 82%

    26 July, Friday

    Time Temperature Precipitation Wind Pressure Humidity
    00:00 +17°C° 0 mm 2 mps 753 mmHg 84%
    01:00 +17°C° 0 mm 2 mps 753 mmHg 86%
    02:00 +16°C° 0 mm 2 mps 753 mmHg 88%
    03:00 +16°C° 0 mm 2 mps 753 mmHg 89%
    04:00 +16°C° 0 mm 2 mps 753 mmHg 90%
    05:00 +16°C° 0 mm 2 mps 753 mmHg 92%
    06:00 +18°C° 0 mm 2 mps 753 mmHg 85%
    07:00 +20°C° 0 mm 2 mps 753 mmHg 78%
    08:00 +22°C° 0 mm 3 mps 753 mmHg 71%
    09:00 +24°C° 0 mm 3 mps 753 mmHg 64%
    10:00 +26°C° 0 mm 3 mps 753 mmHg 56%
    11:00 +28°C° 0 mm 4 mps 753 mmHg 48%
    12:00 +28°C° 0 mm 3 mps 753 mmHg 47%
    13:00 +28°C° 0 mm 3 mps 753 mmHg 47%
    14:00 +29°C° 0 mm 3 mps 752 mmHg 46%
    15:00 +29°C° 0 mm 3 mps 752 mmHg 48%
    16:00 +29°C° 0 mm 3 mps 752 mmHg 50%
    17:00 +28°C° 0 mm 2 mps 752 mmHg 51%
    18:00 +26°C° 0 mm 2 mps 752 mmHg 61%
    19:00 +24°C° 0 mm 2 mps 752 mmHg 70%
    20:00 +23°C° 0 mm 2 mps 752 mmHg 80%
    21:00 +21°C° 0 mm 2 mps 752 mmHg 83%
    22:00 +20°C° 0 mm 2 mps 752 mmHg 87%
    23:00 +19°C° 0 mm 2 mps 752 mmHg 90%
    Show more